Location: Lussas
(44.6119°N, 4.4726°E)
Time: 19:10:00
(UTC+00:00)

USA 308 - Pass Details

Date: 26 November 2020
Orbit: 561 x 585 km, 54.0° (Epoch: 25 January)

Event Time Altitude Azimuth Distance (km) Brightness Sun altitude
Exits shadow 05:05:18 24° 339° (NNW) 1,222 4.3 -18.8°
Maximum altitude 05:05:52 25° 351° (N) 1,200 4.3 -18.7°
Drops below altitude 10° 05:09:30 10° 48° (NE) 1,914 6.0 -18.0°
Sets 05:12:06 0° 61° (ENE) 2,815 7.2 -17.6°
